Location: Newark
(31.5350°N, 35.0986°E)
Time: 03:31:06
(UTC+00:00)

SR - Pass Details

Date: 27 October 2019
Orbit: 574 x 882 km, 66.7° (Epoch: 12 November)

Event Time Altitude Azimuth Distance (km) Brightness Sun altitude
Rises 17:30:12 0° 208° (SSW) 2,974 ? -33.6°
Enters shadow 17:32:10 - 210° (SSW) 2,202 ? -34.0°
Reaches altitude 10° 17:32:24 10° 210° (SSW) 2,110 - -34.0°
Maximum altitude 17:37:12 76° 296° (WNW) 750 - -35.0°
Drops below altitude 10° 17:42:32 10° 22° (NNE) 2,329 - -36.2°
Sets 17:45:04 0° 24° (NNE) 3,309 - -36.7°
